Location: *
(46.3500°N, 10.9000°E)
Time: 08:04:32
(UTC+00:00)

STARLINK-1212 - Pass Details

Date: 09 April 2020
Orbit: 377 x 382 km, 53.0° (Epoch: 02 June)

Event Time Altitude Azimuth Distance (km) Brightness Sun altitude
Rises 19:40:43 0° 298° (WNW) 2,269 8.5 -17.4°
Reaches altitude 10° 19:42:48 10° 293° (WNW) 1,412 7.0 -17.7°
Maximum altitude 19:45:52 51° 216° (SW) 489 3.3 -18.1°
Enters shadow 19:46:11 49° 192° (SSW) 506 3.2 -18.2°
